TKJ264 LWSK-LTFJ

Flight info

Callsign TKJ264
Flight time N/A
Altitude 19000
Route SIN T215 VELBA/N0464F350 P127 ROVDO N739 ADORU UM19 IBODU
Aircraft B738/M-SDE2E3FGHIRWXY/LB1

Departure

Time 2026-04-23 12:44
Airport Skopje International Airport (LWSK)

Arrival

Time N/A
Airport Istanbul Sabiha Gökçen International Airport (LTFJ)
Time Latitude Longitude Altitude Speed Heading
2026-04-23 12:11 41.96031 21.62598 793 ft 0 kts 76°
2026-04-23 12:31 41.96030 21.62594 796 ft 2 kts 75°
2026-04-23 12:31 41.96030 21.62591 796 ft 2 kts 78°
2026-04-23 12:31 41.96028 21.62566 796 ft 3 kts 101°
2026-04-23 12:31 41.96035 21.62544 796 ft 3 kts 137°
2026-04-23 12:32 41.96051 21.62531 796 ft 3 kts 162°
2026-04-23 12:32 41.96069 21.62524 796 ft 2 kts 166°
2026-04-23 12:32 41.96076 21.62522 796 ft 0 kts 166°
2026-04-23 12:37 41.96071 21.62524 795 ft 2 kts 166°
2026-04-23 12:37 41.96041 21.62523 795 ft 6 kts 211°
2026-04-23 12:37 41.95993 21.62483 794 ft 10 kts 195°
2026-04-23 12:37 41.95916 21.62500 794 ft 12 kts 163°
2026-04-23 12:38 41.95827 21.62531 792 ft 15 kts 166°
2026-04-23 12:38 41.95714 21.62571 789 ft 18 kts 164°
2026-04-23 12:38 41.95584 21.62617 788 ft 20 kts 167°
2026-04-23 12:38 41.95530 21.62637 787 ft 6 kts 163°
2026-04-23 12:39 41.95480 21.62655 787 ft 9 kts 166°
2026-04-23 12:39 41.95407 21.62680 785 ft 12 kts 165°
2026-04-23 12:39 41.95359 21.62696 785 ft 1 kts 166°
2026-04-23 12:39 41.95359 21.62697 784 ft 0 kts 166°
2026-04-23 12:40 41.95346 21.62701 784 ft 4 kts 166°
2026-04-23 12:40 41.95297 21.62718 783 ft 12 kts 166°
2026-04-23 12:40 41.95205 21.62749 781 ft 15 kts 170°
2026-04-23 12:40 41.95137 21.62681 781 ft 7 kts 252°
2026-04-23 12:41 41.95135 21.62670 781 ft 1 kts 256°
2026-04-23 12:41 41.95132 21.62651 781 ft 3 kts 260°
2026-04-23 12:41 41.95131 21.62639 781 ft 0 kts 261°
2026-04-23 12:41 41.95130 21.62629 781 ft 2 kts 263°
2026-04-23 12:42 41.95128 21.62617 781 ft 2 kts 256°
2026-04-23 12:42 41.95124 21.62599 781 ft 2 kts 257°
2026-04-23 12:42 41.95119 21.62564 782 ft 5 kts 260°
2026-04-23 12:42 41.95121 21.62528 783 ft 0 kts 293°
2026-04-23 12:43 41.95128 21.62511 783 ft 6 kts 308°
2026-04-23 12:43 41.95176 21.62488 783 ft 8 kts 345°
2026-04-23 12:43 41.95242 21.62465 784 ft 14 kts 345°
2026-04-23 12:44 41.95530 21.62365 785 ft 79 kts 344°
2026-04-23 12:44 41.96284 21.62099 792 ft 145 kts 346°
2026-04-23 12:44 41.97423 21.61687 993 ft 188 kts 345°
2026-04-23 12:44 41.98789 21.61706 1674 ft 204 kts 18°
2026-04-23 12:45 41.99893 21.62867 2900 ft 207 kts 52°
2026-04-23 12:45 42.00384 21.64806 3609 ft 238 kts 86°
2026-04-23 12:45 41.99885 21.67062 4136 ft 270 kts 124°
2026-04-23 12:45 41.98378 21.68625 5112 ft 279 kts 152°
2026-04-23 12:46 41.96765 21.70002 6171 ft 282 kts 133°
2026-04-23 12:46 41.95731 21.72195 7146 ft 276 kts 104°
2026-04-23 12:46 41.95496 21.74722 8162 ft 274 kts 86°
2026-04-23 12:46 41.95525 21.77326 9093 ft 281 kts 85°
2026-04-23 12:47 41.95587 21.79955 10172 ft 281 kts 84°
2026-04-23 12:47 41.95676 21.82611 10894 ft 293 kts 84°
2026-04-23 12:47 41.95788 21.85428 11422 ft 310 kts 84°
2026-04-23 12:47 41.95917 21.88430 11849 ft 330 kts 84°
2026-04-23 12:48 41.96059 21.91591 12202 ft 349 kts 84°
2026-04-23 12:48 41.96213 21.94924 12597 ft 364 kts 84°
2026-04-23 12:48 41.96373 21.98373 13163 ft 373 kts 85°
2026-04-23 12:48 41.96533 22.01842 14026 ft 373 kts 84°
2026-04-23 12:49 41.96695 22.05354 14612 ft 378 kts 85°
2026-04-23 12:49 41.96854 22.08845 15338 ft 379 kts 85°
2026-04-23 12:49 41.97018 22.12450 15957 ft 384 kts 85°
2026-04-23 12:49 41.97180 22.16043 16642 ft 386 kts 85°
2026-04-23 12:50 41.97342 22.19643 17313 ft 388 kts 85°
2026-04-23 12:50 41.97501 22.23233 17945 ft 391 kts 84°
2026-04-23 12:50 41.97662 22.26888 18526 ft 393 kts 84°
2026-04-23 12:50 41.97824 22.30570 18972 ft 397 kts 84°
2026-04-23 12:51 41.97987 22.34320 18995 ft 406 kts 84°
2026-04-23 12:51 41.97997 22.38164 19027 ft 414 kts 90°
2026-04-23 12:51 41.97868 22.42026 19016 ft 415 kts 90°
2026-04-23 12:51 41.97757 22.45902 19033 ft 415 kts 90°
2026-04-23 12:52 41.97658 22.49762 19039 ft 414 kts 89°
2026-04-23 12:52 41.97563 22.53635 19037 ft 415 kts 89°
2026-04-23 12:52 41.97468 22.57513 19032 ft 415 kts 89°
2026-04-23 12:52 41.97372 22.61385 19194 ft 416 kts 89°
2026-04-23 12:53 41.97275 22.65272 19821 ft 416 kts 89°
2026-04-23 12:53 41.97177 22.69169 20255 ft 419 kts 89°
2026-04-23 12:53 41.97076 22.73100 20798 ft 420 kts 89°
2026-04-23 12:53 41.96973 22.77039 21304 ft 422 kts 89°
2026-04-23 12:54 41.96870 22.80972 21797 ft 424 kts 89°
2026-04-23 12:54 41.96764 22.84943 22283 ft 425 kts 89°
2026-04-23 12:54 41.96739 22.88876 22731 ft 425 kts 84°
2026-04-23 12:54 41.96918 22.92840 23257 ft 426 kts 84°
2026-04-23 12:55 41.97114 22.96868 23689 ft 428 kts 84°
2026-04-23 12:55 41.97314 23.00817 24065 ft 430 kts 84°
2026-04-23 12:55 41.97517 23.04835 24478 ft 431 kts 83°
2026-04-23 12:55 41.97720 23.08858 24865 ft 432 kts 84°
2026-04-23 12:56 41.97923 23.12890 25327 ft 431 kts 84°
2026-04-23 12:56 41.98123 23.16909 25881 ft 428 kts 84°
2026-04-23 12:56 41.98322 23.20901 26444 ft 425 kts 83°
2026-04-23 12:56 41.98516 23.24844 26960 ft 423 kts 83°
2026-04-23 12:57 41.98708 23.28782 27520 ft 421 kts 83°
2026-04-23 12:57 41.98897 23.32692 28052 ft 418 kts 84°
2026-04-23 12:57 41.99085 23.36574 28584 ft 415 kts 83°
2026-04-23 12:57 41.99270 23.40453 29044 ft 414 kts 83°
2026-04-23 12:58 41.99451 23.44263 29595 ft 412 kts 83°
2026-04-23 12:58 41.99633 23.48099 30060 ft 411 kts 83°
2026-04-23 12:58 41.99812 23.51940 30472 ft 410 kts 84°
2026-04-23 12:58 41.99989 23.55757 30786 ft 410 kts 83°
2026-04-23 12:59 42.00167 23.59607 31020 ft 412 kts 84°
2026-04-23 12:59 42.00343 23.63439 31346 ft 412 kts 84°
2026-04-23 12:59 42.00518 23.67295 31609 ft 414 kts 84°
2026-04-23 12:59 42.00694 23.71171 31870 ft 416 kts 84°
2026-04-23 13:00 42.00868 23.75059 32169 ft 417 kts 84°
2026-04-23 13:00 42.01041 23.78947 32465 ft 417 kts 84°
2026-04-23 13:00 42.01213 23.82846 32796 ft 417 kts 84°
2026-04-23 13:00 42.01384 23.86749 32977 ft 419 kts 84°
2026-04-23 13:01 42.01724 23.94592 33020 ft 420 kts 84°
2026-04-23 13:01 42.02058 24.02437 33005 ft 420 kts 84°
2026-04-23 13:02 42.02386 24.10263 33007 ft 420 kts 84°
2026-04-23 13:02 42.02709 24.18083 33015 ft 420 kts 85°
2026-04-23 13:03 42.03026 24.25926 33010 ft 420 kts 85°
2026-04-23 13:03 42.03339 24.33767 33004 ft 420 kts 85°
2026-04-23 13:04 42.03647 24.41617 33011 ft 420 kts 85°
2026-04-23 13:04 42.03949 24.49466 32998 ft 421 kts 85°
2026-04-23 13:05 42.04246 24.57323 32990 ft 421 kts 85°
2026-04-23 13:05 42.04539 24.65212 32974 ft 421 kts 85°
2026-04-23 13:06 42.04922 24.75710 32971 ft 422 kts 85°